Tracking 32932 objects as of 15-Jan-2026
HD Live streaming from Space Station
objects crossing your sky now

SL-12 R/B(2)

Track SL-12 R/B(2) now!


NORAD ID: 23111
Int'l Code: 1994-030D
Perigee: 34,639.1 km
Apogee: 35,006.2 km
Inclination: 12.7 °
Period: 1,386.8 minutes
Semi major axis: 41193 km
RCS: 2.2242 m2 (large)
Launch date: May 20, 1994
Source: Commonwealth of Independent States (former USSR) (CIS)
Launch site: TYURATAM MISSILE AND SPACE COMPLEX (TTMTR)

Note: This is a ROCKET BODY
Your satellite tracking list
Your tracking list is empty




NASA's NSSDC Master Catalog

Two Line Element Set (TLE):
1 23111U 94030D   26014.35216819 -.00000109  00000-0  00000-0 0  9993
2 23111  12.6928 344.2757 0044564 190.5218   5.4938  1.03838380120061
Source of the keplerian elements: AFSPC